Location: La Sioule Rivi�re
(46.3664°N, 3.3197°E)
Time: 12:33:04
(UTC+00:00)

MOS 1 Rocket - Pass Details

Date: 29 October 2020
Orbit: 615 x 829 km, 97.4° (Epoch: 23 November)

Event Time Altitude Azimuth Distance (km) Brightness Sun altitude
Rises 18:02:10 0° 20° (NNE) 3,052 6.4 -15.4°
Reaches altitude 10° 18:04:31 10° 29° (NNE) 2,165 5.5 -15.8°
Maximum altitude 18:08:55 36° 97° (E) 1,142 3.9 -16.5°
Drops below altitude 10° 18:13:31 10° 163° (SSE) 2,277 5.8 -17.3°
Sets 18:16:02 0° 172° (S) 3,232 6.7 -17.8°
